Weather History for Kaiser, MO

Change the Weather History Date:

Wednesday, February 13, 2013

  Actual Average Record
Temperature  
Mean Temperature 39 °F -  
Max Temperature 46 °F 45 °F 57 °F (2009)
Min Temperature 32 °F 28 °F 5 °F (2008)
Degree Days  
Heating Degree Days 26    
Moisture  
Dew Point 30 °F    
Average Humidity 71    
Maximum Humidity 87    
Minimum Humidity 53    
Precipitation  
Precipitation 0.00 in - - ()
Sea Level Pressure  
Sea Level Pressure 29.92 in    
Wind  
Wind Speed 7 mph (SW)    
Max Wind Speed 15 mph    
Max Gust Speed 20 mph    
Visibility 10 miles    
Events      
Averages and records for this station are not official NWS values.
T = Trace of Precipitation, MM = Missing Value Source: NWS Daily Summary

Daily Weather History Graph

Daily Weather History Graph

Search for Another Location

Airport:

Trip Planner

Search our weather history database for the weather conditions in past years. The results will help you decide how hot, cold, wet, or windy it might be!

Date:

Astronomy

Feb. 13, 2013 Rise Set
Actual Time 7:02 AM CST 5:46 PM CST
Civil Twilight 6:35 AM CST 6:14 PM CST
Nautical Twilight 6:04 AM CST 6:45 PM CST
Astronomical Twilight 5:33 AM CST 7:15 PM CST
Moon 8:36 AM CST (2/13) 9:45 PM CST (2/13)
Length of Visible Light 11h 38m
Length of Day
10h 44m
Waxing Crescent, 14% of the Moon is Illuminated
Feb 13
Waxing Crescent
Feb 17
First Quarter
Feb 25
Full
Mar 4
Last Quarter
Mar 11
New

Hourly Weather History & Observations

Time (CST) Temp. Windchill Dew Point Humidity Pressure Visibility Wind Dir Wind Speed Gust Speed Precip Events Conditions
12:15 AM 35.6 °F 31.7 °F 32.0 °F 87% 29.98 in 10.0 mi SSW 4.6 mph - N/A   Overcast
12:35 AM 35.6 °F 30.7 °F 32.0 °F 87% 29.98 in 10.0 mi SSW 5.8 mph - N/A   Overcast
12:55 AM 35.6 °F 31.7 °F 32.0 °F 87% 29.97 in 10.0 mi SSW 4.6 mph - N/A   Overcast
1:15 AM 35.6 °F 32.8 °F 30.2 °F 81% 29.97 in 10.0 mi SW 3.5 mph - N/A   Overcast
1:35 AM 35.6 °F 31.7 °F 30.2 °F 81% 29.97 in 10.0 mi SW 4.6 mph - N/A   Overcast
1:55 AM 35.6 °F 31.7 °F 30.2 °F 81% 29.96 in 10.0 mi SW 4.6 mph - N/A   Overcast
2:15 AM 35.6 °F 31.7 °F 32.0 °F 87% 29.96 in 10.0 mi West 4.6 mph - N/A   Mostly Cloudy
2:35 AM 35.6 °F 31.7 °F 30.2 °F 81% 29.96 in 10.0 mi WNW 4.6 mph - N/A   Overcast
2:55 AM 35.6 °F 31.7 °F 30.2 °F 81% 29.95 in 10.0 mi West 4.6 mph - N/A   Overcast
3:15 AM 35.6 °F 31.7 °F 30.2 °F 81% 29.94 in 10.0 mi WSW 4.6 mph - N/A   Overcast
3:35 AM 35.6 °F 32.8 °F 30.2 °F 81% 29.93 in 10.0 mi WSW 3.5 mph - N/A   Overcast
3:55 AM 33.8 °F 30.8 °F 30.2 °F 87% 29.92 in 8.0 mi West 3.5 mph - N/A   Partly Cloudy
4:15 AM 33.8 °F 30.8 °F 30.2 °F 87% 29.92 in 7.0 mi WSW 3.5 mph - N/A   Mostly Cloudy
4:35 AM 33.8 °F 30.8 °F 30.2 °F 87% 29.91 in 8.0 mi WSW 3.5 mph - N/A   Mostly Cloudy
4:55 AM 33.8 °F 30.8 °F 30.2 °F 87% 29.92 in 7.0 mi West 3.5 mph - N/A   Scattered Clouds
5:15 AM 33.8 °F 30.8 °F 30.2 °F 87% 29.92 in 6.0 mi WSW 3.5 mph - N/A   Partly Cloudy
5:35 AM 33.8 °F 29.6 °F 30.2 °F 87% 29.93 in 7.0 mi SW 4.6 mph - N/A   Clear
5:55 AM 33.8 °F 29.6 °F 30.2 °F 87% 29.93 in 10.0 mi SW 4.6 mph - N/A   Clear
6:15 AM 33.8 °F 30.8 °F 28.4 °F 81% 29.93 in 10.0 mi WSW 3.5 mph - N/A   Clear
6:35 AM 33.8 °F 30.8 °F 28.4 °F 81% 29.93 in 10.0 mi West 3.5 mph - N/A   Clear
6:55 AM 32.0 °F 27.5 °F 28.4 °F 87% 29.94 in 10.0 mi WSW 4.6 mph - N/A   Clear
7:15 AM 32.0 °F 26.4 °F 28.4 °F 87% 29.94 in 10.0 mi WSW 5.8 mph - N/A   Clear
7:35 AM 32.0 °F 26.4 °F 28.4 °F 87% 29.94 in 10.0 mi WSW 5.8 mph - N/A   Clear
7:55 AM 33.8 °F 28.6 °F 28.4 °F 81% 29.94 in 10.0 mi WSW 5.8 mph - N/A   Clear
8:15 AM 33.8 °F 27.7 °F 28.4 °F 81% 29.94 in 10.0 mi WSW 6.9 mph - N/A   Clear
8:35 AM 35.6 °F 28.6 °F 28.4 °F 75% 29.94 in 10.0 mi WSW 9.2 mph - N/A   Clear
8:55 AM 35.6 °F 29.9 °F 30.2 °F 81% 29.94 in 10.0 mi West 6.9 mph - N/A   Clear
9:15 AM 37.4 °F 29.3 °F 30.2 °F 75% 29.93 in 10.0 mi West 12.7 mph - N/A   Clear
9:35 AM 37.4 °F 30.8 °F 30.2 °F 75% 29.93 in 10.0 mi WSW 9.2 mph 17.3 mph N/A   Clear
9:55 AM 39.2 °F 31.6 °F 30.2 °F 70% 29.93 in 10.0 mi WSW 12.7 mph 16.1 mph N/A   Clear
10:15 AM 39.2 °F 31.6 °F 30.2 °F 70% 29.94 in 10.0 mi WSW 12.7 mph - N/A   Clear
10:35 AM 41.0 °F 34.7 °F 30.2 °F 65% 29.94 in 10.0 mi West 10.4 mph - N/A   Clear
10:55 AM 41.0 °F 34.7 °F 30.2 °F 65% 29.94 in 10.0 mi West 10.4 mph - N/A   Partly Cloudy
11:15 AM 42.8 °F 36.6 °F 30.2 °F 61% 29.94 in 10.0 mi WSW 11.5 mph 17.3 mph N/A   Partly Cloudy
11:35 AM 42.8 °F 35.8 °F 30.2 °F 61% 29.94 in 10.0 mi WSW 13.8 mph - N/A   Clear
11:55 AM 42.8 °F 36.6 °F 28.4 °F 57% 29.94 in 10.0 mi West 11.5 mph 19.6 mph N/A   Clear
12:15 PM 44.6 °F 37.8 °F 28.4 °F 53% 29.93 in 10.0 mi WSW 15.0 mph 18.4 mph N/A   Clear
12:35 PM 44.6 °F 38.4 °F 28.4 °F 53% 29.93 in 10.0 mi West 12.7 mph - N/A   Clear
12:55 PM 44.6 °F 38.8 °F 28.4 °F 53% 29.92 in 10.0 mi WSW 11.5 mph - N/A   Clear
1:15 PM 44.6 °F 38.1 °F 30.2 °F 57% 29.91 in 10.0 mi WSW 13.8 mph - N/A   Clear
1:35 PM 44.6 °F 39.7 °F 30.2 °F 57% 29.90 in 10.0 mi SSW 9.2 mph 16.1 mph N/A   Clear
1:55 PM 44.6 °F 39.2 °F 28.4 °F 53% 29.91 in 10.0 mi West 10.4 mph - N/A   Clear
2:15 PM 44.6 °F 38.4 °F 30.2 °F 57% 29.91 in 10.0 mi WSW 12.7 mph - N/A   Clear
2:35 PM 46.4 °F 41.9 °F 30.2 °F 53% 29.90 in 10.0 mi WSW 9.2 mph - N/A   Clear
2:55 PM 46.4 °F 40.7 °F 30.2 °F 53% 29.90 in 10.0 mi WSW 12.7 mph - N/A   Clear
3:15 PM 46.4 °F 41.1 °F 30.2 °F 53% 29.89 in 10.0 mi SW 11.5 mph 17.3 mph N/A   Clear
3:35 PM 46.4 °F 41.1 °F 30.2 °F 53% 29.90 in 10.0 mi SW 11.5 mph 18.4 mph N/A   Clear
3:55 PM 46.4 °F 41.5 °F 30.2 °F 53% 29.89 in 10.0 mi WSW 10.4 mph 17.3 mph N/A   Clear
4:15 PM 46.4 °F 41.5 °F 30.2 °F 53% 29.89 in 10.0 mi WSW 10.4 mph 17.3 mph N/A   Clear
4:35 PM 46.4 °F 41.9 °F 30.2 °F 53% 29.89 in 10.0 mi WSW 9.2 mph - N/A   Partly Cloudy
4:55 PM 46.4 °F 41.1 °F 30.2 °F 53% 29.89 in 10.0 mi SW 11.5 mph - N/A   Clear
5:15 PM 44.6 °F 39.7 °F 30.2 °F 57% 29.89 in 10.0 mi SW 9.2 mph - N/A   Clear
5:35 PM 44.6 °F 40.2 °F 30.2 °F 57% 29.89 in 10.0 mi SW 8.1 mph - N/A   Clear
5:55 PM 42.8 °F 37.5 °F 30.2 °F 61% 29.89 in 10.0 mi SW 9.2 mph - N/A   Clear
6:15 PM 41.0 °F 35.8 °F 30.2 °F 65% 29.89 in 10.0 mi SW 8.1 mph - N/A   Clear
6:35 PM 41.0 °F 35.2 °F 30.2 °F 65% 29.89 in 10.0 mi SW 9.2 mph - N/A   Clear
6:55 PM 39.2 °F 34.2 °F 30.2 °F 70% 29.89 in 10.0 mi SW 6.9 mph - N/A   Clear
7:15 PM 39.2 °F 33.6 °F 30.2 °F 70% 29.89 in 10.0 mi SW 8.1 mph - N/A   Clear
7:35 PM 39.2 °F 33.6 °F 30.2 °F 70% 29.90 in 10.0 mi SW 8.1 mph - N/A   Clear
7:55 PM 37.4 °F 32.1 °F 30.2 °F 75% 29.90 in 10.0 mi SSW 6.9 mph - N/A   Clear
8:15 PM 39.2 °F 35.0 °F 30.2 °F 70% 29.89 in 10.0 mi SSW 5.8 mph - N/A   Clear
8:35 PM 39.2 °F 35.0 °F 30.2 °F 70% 29.89 in 10.0 mi SSW 5.8 mph - N/A   Clear
8:55 PM 37.4 °F 33.8 °F 30.2 °F 75% 29.89 in 10.0 mi South 4.6 mph - N/A   Clear
9:15 PM 37.4 °F 32.8 °F 30.2 °F 75% 29.89 in 10.0 mi South 5.8 mph - N/A   Clear
9:35 PM 37.4 °F 32.8 °F 30.2 °F 75% 29.89 in 10.0 mi South 5.8 mph - N/A   Clear
9:55 PM 37.4 °F 32.8 °F 28.4 °F 70% 29.89 in 10.0 mi South 5.8 mph - N/A   Clear
10:15 PM 35.6 °F 30.7 °F 28.4 °F 75% 29.89 in 10.0 mi South 5.8 mph - N/A   Clear
10:35 PM 37.4 °F 32.8 °F 28.4 °F 70% 29.89 in 10.0 mi SSW 5.8 mph - N/A   Clear
10:55 PM 37.4 °F 32.8 °F 28.4 °F 70% 29.89 in 10.0 mi SSW 5.8 mph - N/A   Clear
11:15 PM 37.4 °F 32.8 °F 28.4 °F 70% 29.89 in 10.0 mi SW 5.8 mph - N/A   Clear
11:35 PM 37.4 °F 32.1 °F 28.4 °F 70% 29.89 in 10.0 mi SW 6.9 mph - N/A   Clear
11:55 PM 39.2 °F 34.2 °F 30.2 °F 70% 29.88 in 10.0 mi WSW 6.9 mph - N/A   Clear